Time,TemperatureF,DewpointF,PressureIn,WindDirection,WindDirectionDegrees,WindSpeedMPH,WindSpeedGustMPH,Humidity,HourlyPrecipIn,Conditions,Clouds,dailyrainin,SolarRadiationWatts/m^2,SoftwareType,DateUTC
2013-02-26 00:01:00,56.0,-99.9,-100.00,NNE,15,3.0,13.0,-999,0.01,,,0.10,0.000000,,2013-02-26 10:01:00,
2013-02-26 00:11:00,56.0,-99.9,-100.00,NNE,15,3.0,13.0,-999,0.01,,,0.10,0.000000,,2013-02-26 10:11:00,
2013-02-26 00:21:00,56.0,-99.9,-100.00,NNE,15,3.0,13.0,-999,0.01,,,0.10,0.000000,,2013-02-26 10:21:00,
2013-02-26 00:42:00,55.0,-99.9,-100.00,North,5,4.0,14.0,-999,0.00,,,0.10,0.000000,,2013-02-26 10:42:00,
2013-02-26 00:52:00,55.0,-99.9,-100.00,North,5,4.0,14.0,-999,0.00,,,0.10,0.000000,,2013-02-26 10:52:00,
2013-02-26 01:01:00,55.0,-99.9,-100.00,North,5,4.0,14.0,-999,0.00,,,0.10,0.000000,,2013-02-26 11:01:00,
2013-02-26 01:12:00,55.0,-99.9,-100.00,North,5,4.0,14.0,-999,0.00,,,0.10,0.000000,,2013-02-26 11:12:00,
2013-02-26 01:22:00,55.0,-99.9,-100.00,North,5,4.0,14.0,-999,0.00,,,0.10,0.000000,,2013-02-26 11:22:00,
2013-02-26 01:42:00,55.0,-99.9,-100.00,North,2,4.0,15.0,-999,0.00,,,0.10,0.000000,,2013-02-26 11:42:00,
2013-02-26 01:53:00,55.0,-99.9,-100.00,North,2,4.0,15.0,-999,0.00,,,0.10,0.000000,,2013-02-26 11:53:00,
2013-02-26 02:02:00,55.0,-99.9,-100.00,North,2,4.0,15.0,-999,0.00,,,0.10,0.000000,,2013-02-26 12:02:00,
2013-02-26 02:11:00,55.0,-99.9,-100.00,North,2,4.0,15.0,-999,0.00,,,0.10,0.000000,,2013-02-26 12:11:00,
2013-02-26 02:22:00,55.0,-99.9,-100.00,North,2,4.0,15.0,-999,0.00,,,0.10,0.000000,,2013-02-26 12:22:00,
2013-02-26 02:42:00,54.0,-99.9,-100.00,North,352,5.0,14.0,-999,0.00,,,0.10,0.000000,,2013-02-26 12:42:00,
2013-02-26 02:53:00,54.0,-99.9,-100.00,North,352,5.0,14.0,-999,0.00,,,0.10,0.000000,,2013-02-26 12:53:00,
2013-02-26 03:02:00,54.0,-99.9,-100.00,North,352,5.0,14.0,-999,0.00,,,0.10,0.000000,,2013-02-26 13:02:00,
2013-02-26 03:11:00,54.0,-99.9,-100.00,North,352,5.0,14.0,-999,0.00,,,0.10,0.000000,,2013-02-26 13:11:00,
2013-02-26 03:22:00,54.0,-99.9,-100.00,North,352,5.0,14.0,-999,0.00,,,0.10,0.000000,,2013-02-26 13:22:00,
2013-02-26 03:42:00,53.0,53.0,-100.00,North,0,3.0,9.0,100,0.00,,,0.10,0.000000,,2013-02-26 13:42:00,
2013-02-26 03:52:00,53.0,53.0,-100.00,North,0,3.0,9.0,100,0.00,,,0.10,0.000000,,2013-02-26 13:52:00,
2013-02-26 04:01:00,53.0,53.0,-100.00,North,0,3.0,9.0,100,0.00,,,0.10,0.000000,,2013-02-26 14:01:00,
2013-02-26 04:11:00,53.0,53.0,-100.00,North,0,3.0,9.0,100,0.00,,,0.10,0.000000,,2013-02-26 14:11:00,
2013-02-26 04:21:00,53.0,53.0,-100.00,North,0,3.0,9.0,100,0.00,,,0.10,0.000000,,2013-02-26 14:21:00,
2013-02-26 04:42:00,51.0,48.0,-100.00,North,1,4.0,10.0,91,0.00,,,0.10,0.000000,,2013-02-26 14:42:00,
2013-02-26 04:52:00,51.0,48.0,-100.00,North,1,4.0,10.0,91,0.00,,,0.10,0.000000,,2013-02-26 14:52:00,
2013-02-26 05:02:00,51.0,48.0,-100.00,North,1,4.0,10.0,91,0.00,,,0.10,0.000000,,2013-02-26 15:02:00,
2013-02-26 05:11:00,51.0,48.0,-100.00,North,1,4.0,10.0,91,0.00,,,0.10,0.000000,,2013-02-26 15:11:00,
2013-02-26 05:21:00,51.0,48.0,-100.00,North,1,4.0,10.0,91,0.00,,,0.10,0.000000,,2013-02-26 15:21:00,
2013-02-26 05:42:00,50.0,-99.9,-100.00,North,2,4.0,8.0,-999,0.00,,,0.10,0.000000,,2013-02-26 15:42:00,
2013-02-26 05:52:00,50.0,-99.9,-100.00,North,2,4.0,8.0,-999,0.00,,,0.10,0.000000,,2013-02-26 15:52:00,
2013-02-26 06:02:00,50.0,-99.9,-100.00,North,2,4.0,8.0,-999,0.00,,,0.10,0.000000,,2013-02-26 16:02:00,
2013-02-26 06:11:00,50.0,-99.9,-100.00,North,2,4.0,8.0,-999,0.00,,,0.10,0.000000,,2013-02-26 16:11:00,
2013-02-26 06:22:00,50.0,-99.9,-100.00,North,2,4.0,8.0,-999,0.00,,,0.10,0.000000,,2013-02-26 16:22:00,
2013-02-26 06:42:00,48.0,-99.9,-100.00,North,359,4.0,7.0,-999,0.00,,,0.10,0.000000,,2013-02-26 16:42:00,
2013-02-26 06:52:00,48.0,-99.9,-100.00,North,359,4.0,7.0,-999,0.00,,,0.10,0.000000,,2013-02-26 16:52:00,
2013-02-26 07:02:00,48.0,-99.9,-100.00,North,359,4.0,7.0,-999,0.00,,,0.10,0.000000,,2013-02-26 17:02:00,
2013-02-26 07:11:00,48.0,-99.9,-100.00,North,359,4.0,7.0,-999,0.00,,,0.10,0.000000,,2013-02-26 17:11:00,
2013-02-26 07:22:00,48.0,-99.9,-100.00,North,359,4.0,7.0,-999,0.00,,,0.10,0.000000,,2013-02-26 17:22:00,
2013-02-26 07:42:00,48.0,-99.9,-100.00,North,0,4.0,7.0,-999,0.00,,,0.10,2.000000,,2013-02-26 17:42:00,
2013-02-26 07:52:00,48.0,-99.9,-100.00,North,0,4.0,7.0,-999,0.00,,,0.10,2.000000,,2013-02-26 17:52:00,
2013-02-26 08:02:00,48.0,-99.9,-100.00,North,0,4.0,7.0,-999,0.00,,,0.10,2.000000,,2013-02-26 18:02:00,
2013-02-26 08:12:00,48.0,-99.9,-100.00,North,0,4.0,7.0,-999,0.00,,,0.10,2.000000,,2013-02-26 18:12:00,
2013-02-26 08:22:00,48.0,-99.9,-100.00,North,0,4.0,7.0,-999,0.00,,,0.10,2.000000,,2013-02-26 18:22:00,
2013-02-26 08:42:00,51.0,43.0,-100.00,North,1,3.0,8.0,75,0.00,,,0.10,81.000000,,2013-02-26 18:42:00,
2013-02-26 08:52:00,51.0,43.0,-100.00,North,1,3.0,8.0,75,0.00,,,0.10,81.000000,,2013-02-26 18:52:00,
2013-02-26 09:01:00,51.0,43.0,-100.00,North,1,3.0,8.0,75,0.00,,,0.10,81.000000,,2013-02-26 19:01:00,
2013-02-26 09:11:00,51.0,43.0,-100.00,North,1,3.0,8.0,75,0.00,,,0.10,81.000000,,2013-02-26 19:11:00,
2013-02-26 09:21:00,51.0,43.0,-100.00,North,1,3.0,8.0,75,0.00,,,0.10,81.000000,,2013-02-26 19:21:00,
2013-02-26 09:42:00,59.0,48.0,-100.00,NNE,33,3.0,12.0,66,0.00,,,0.10,369.000000,,2013-02-26 19:42:00,
2013-02-26 09:52:00,59.0,48.0,-100.00,NNE,33,3.0,12.0,66,0.00,,,0.10,369.000000,,2013-02-26 19:52:00,
2013-02-26 10:01:00,59.0,48.0,-100.00,NNE,33,3.0,12.0,66,0.00,,,0.10,369.000000,,2013-02-26 20:01:00,
2013-02-26 10:11:00,59.0,48.0,-100.00,NNE,33,3.0,12.0,66,0.00,,,0.10,369.000000,,2013-02-26 20:11:00,
2013-02-26 10:21:00,59.0,48.0,-100.00,NNE,33,3.0,12.0,66,0.00,,,0.10,369.000000,,2013-02-26 20:21:00,
2013-02-26 12:42:00,67.0,51.0,-100.00,ENE,75,6.0,20.0,56,-99.99,,,0.10,932.000000,,2013-02-26 22:42:00,
2013-02-26 12:52:00,67.0,51.0,-100.00,ENE,75,6.0,20.0,56,-99.99,,,0.10,932.000000,,2013-02-26 22:52:00,
2013-02-26 13:01:00,67.0,51.0,-100.00,ENE,75,6.0,20.0,56,-99.99,,,0.10,932.000000,,2013-02-26 23:01:00,
2013-02-26 13:11:00,67.0,51.0,-100.00,ENE,75,6.0,20.0,56,-99.99,,,0.10,932.000000,,2013-02-26 23:11:00,
2013-02-26 13:21:00,67.0,51.0,-100.00,ENE,75,6.0,20.0,56,-99.99,,,0.10,932.000000,,2013-02-26 23:21:00,
2013-02-26 13:42:00,67.0,51.0,-100.00,ESE,120,6.0,19.0,56,0.00,,,0.10,978.000000,,2013-02-26 23:42:00,
2013-02-26 13:52:00,67.0,51.0,-100.00,ESE,120,6.0,19.0,56,0.00,,,0.10,978.000000,,2013-02-26 23:52:00,
2013-02-26 14:01:00,67.0,51.0,-100.00,ESE,120,6.0,19.0,56,0.00,,,0.10,978.000000,,2013-02-27 00:01:00,
2013-02-26 14:11:00,67.0,51.0,-100.00,ESE,120,6.0,19.0,56,0.00,,,0.10,978.000000,,2013-02-27 00:11:00,
2013-02-26 14:21:00,67.0,51.0,-100.00,ESE,120,6.0,19.0,56,0.00,,,0.10,978.000000,,2013-02-27 00:21:00,
2013-02-26 14:42:00,67.0,52.0,-100.00,East,97,6.0,22.0,59,0.00,,,0.10,964.000000,,2013-02-27 00:42:00,
2013-02-26 14:52:00,67.0,52.0,-100.00,East,97,6.0,22.0,59,0.00,,,0.10,964.000000,,2013-02-27 00:52:00,
2013-02-26 15:01:00,67.0,52.0,-100.00,East,97,6.0,22.0,59,0.00,,,0.10,964.000000,,2013-02-27 01:01:00,
2013-02-26 15:11:00,67.0,52.0,-100.00,East,97,6.0,22.0,59,0.00,,,0.10,964.000000,,2013-02-27 01:11:00,
2013-02-26 15:21:00,67.0,52.0,-100.00,East,97,6.0,22.0,59,0.00,,,0.10,964.000000,,2013-02-27 01:21:00,
2013-02-26 15:42:00,66.0,55.0,-100.00,ESE,104,6.0,20.0,67,0.00,,,0.10,846.000000,,2013-02-27 01:42:00,
2013-02-26 15:52:00,66.0,55.0,-100.00,ESE,104,6.0,20.0,67,0.00,,,0.10,846.000000,,2013-02-27 01:52:00,
2013-02-26 16:01:00,66.0,55.0,-100.00,ESE,104,6.0,20.0,67,0.00,,,0.10,846.000000,,2013-02-27 02:01:00,
2013-02-26 16:13:00,66.0,55.0,-100.00,ESE,104,6.0,20.0,67,0.00,,,0.10,846.000000,,2013-02-27 02:13:00,
2013-02-26 16:21:00,66.0,55.0,-100.00,ESE,104,6.0,20.0,67,0.00,,,0.10,846.000000,,2013-02-27 02:21:00,
2013-02-26 16:42:00,65.0,53.0,-100.00,East,94,6.0,23.0,66,0.00,,,0.10,610.000000,,2013-02-27 02:42:00,
2013-02-26 16:52:00,65.0,53.0,-100.00,East,94,6.0,23.0,66,0.00,,,0.10,610.000000,,2013-02-27 02:52:00,
2013-02-26 17:01:00,65.0,53.0,-100.00,East,94,6.0,23.0,66,0.00,,,0.10,610.000000,,2013-02-27 03:01:00,
2013-02-26 17:11:00,65.0,53.0,-100.00,East,94,6.0,23.0,66,0.00,,,0.10,610.000000,,2013-02-27 03:11:00,
2013-02-26 17:21:00,65.0,53.0,-100.00,East,94,6.0,23.0,66,0.00,,,0.10,610.000000,,2013-02-27 03:21:00,
2013-02-26 17:42:00,64.0,52.0,-100.00,NE,52,4.0,19.0,64,0.00,,,0.10,405.000000,,2013-02-27 03:42:00,
2013-02-26 17:52:00,64.0,52.0,-100.00,NE,52,4.0,19.0,64,0.00,,,0.10,405.000000,,2013-02-27 03:52:00,
2013-02-26 18:01:00,64.0,52.0,-100.00,NE,52,4.0,19.0,64,0.00,,,0.10,405.000000,,2013-02-27 04:01:00,
2013-02-26 18:11:00,64.0,52.0,-100.00,NE,52,4.0,19.0,64,0.00,,,0.10,405.000000,,2013-02-27 04:11:00,
2013-02-26 18:21:00,64.0,52.0,-100.00,NE,52,4.0,19.0,64,0.00,,,0.10,405.000000,,2013-02-27 04:21:00,
2013-02-26 18:42:00,62.0,55.0,-100.00,ENE,70,3.0,13.0,77,0.00,,,0.07,233.000000,,2013-02-27 04:42:00,
2013-02-26 18:52:00,62.0,55.0,-100.00,ENE,70,3.0,13.0,77,0.00,,,0.07,233.000000,,2013-02-27 04:52:00,
2013-02-26 19:01:00,62.0,55.0,-100.00,ENE,70,3.0,13.0,77,0.00,,,0.07,233.000000,,2013-02-27 05:01:00,
2013-02-26 19:11:00,62.0,55.0,-100.00,ENE,70,3.0,13.0,77,0.00,,,0.07,233.000000,,2013-02-27 05:11:00,
2013-02-26 19:21:00,62.0,55.0,-100.00,ENE,70,3.0,13.0,77,0.00,,,0.07,233.000000,,2013-02-27 05:21:00,
2013-02-26 19:42:00,58.0,54.0,-100.00,NNE,33,2.0,11.0,86,0.00,,,0.05,14.000000,,2013-02-27 05:42:00,
2013-02-26 19:52:00,58.0,54.0,-100.00,NNE,33,2.0,11.0,86,0.00,,,0.05,14.000000,,2013-02-27 05:52:00,
2013-02-26 20:02:00,58.0,54.0,-100.00,NNE,33,2.0,11.0,86,0.00,,,0.05,14.000000,,2013-02-27 06:02:00,
2013-02-26 20:11:00,58.0,54.0,-100.00,NNE,33,2.0,11.0,86,0.00,,,0.05,14.000000,,2013-02-27 06:11:00,
2013-02-26 20:21:00,58.0,54.0,-100.00,NNE,33,2.0,11.0,86,0.00,,,0.05,14.000000,,2013-02-27 06:21:00,
2013-02-26 20:42:00,57.0,53.0,-100.00,NNE,27,2.0,8.0,87,0.00,,,0.03,0.000000,,2013-02-27 06:42:00,
2013-02-26 20:52:00,57.0,53.0,-100.00,NNE,27,2.0,8.0,87,0.00,,,0.03,0.000000,,2013-02-27 06:52:00,
2013-02-26 21:01:00,57.0,53.0,-100.00,NNE,27,2.0,8.0,87,0.00,,,0.03,0.000000,,2013-02-27 07:01:00,
2013-02-26 21:12:00,57.0,53.0,-100.00,NNE,27,2.0,8.0,87,0.00,,,0.03,0.000000,,2013-02-27 07:12:00,
2013-02-26 21:21:00,57.0,53.0,-100.00,NNE,27,2.0,8.0,87,0.00,,,0.03,0.000000,,2013-02-27 07:21:00,
2013-02-26 21:42:00,56.0,52.0,-100.00,North,3,2.0,9.0,88,0.00,,,0.02,0.000000,,2013-02-27 07:42:00,
2013-02-26 21:52:00,56.0,52.0,-100.00,North,3,2.0,9.0,88,0.00,,,0.02,0.000000,,2013-02-27 07:52:00,
2013-02-26 22:01:00,56.0,52.0,-100.00,North,3,2.0,9.0,88,0.00,,,0.02,0.000000,,2013-02-27 08:01:00,
2013-02-26 22:11:00,56.0,52.0,-100.00,North,3,2.0,9.0,88,0.00,,,0.02,0.000000,,2013-02-27 08:11:00,
2013-02-26 22:21:00,56.0,52.0,-100.00,North,3,2.0,9.0,88,0.00,,,0.02,0.000000,,2013-02-27 08:21:00,
2013-02-26 22:42:00,56.0,54.0,-100.00,North,7,2.0,14.0,94,0.00,,,0.01,0.000000,,2013-02-27 08:42:00,
2013-02-26 22:52:00,56.0,54.0,-100.00,North,7,2.0,14.0,94,0.00,,,0.01,0.000000,,2013-02-27 08:52:00,
2013-02-26 23:01:00,56.0,54.0,-100.00,North,7,2.0,14.0,94,0.00,,,0.01,0.000000,,2013-02-27 09:01:00,
2013-02-26 23:11:00,56.0,54.0,-100.00,North,7,2.0,14.0,94,0.00,,,0.01,0.000000,,2013-02-27 09:11:00,
2013-02-26 23:21:00,56.0,54.0,-100.00,North,7,2.0,14.0,94,0.00,,,0.01,0.000000,,2013-02-27 09:21:00,
2013-02-26 23:42:00,56.0,-99.9,-100.00,NNE,32,2.0,8.0,-999,0.00,,,0.00,0.000000,,2013-02-27 09:42:00,
2013-02-26 23:52:00,56.0,-99.9,-100.00,NNE,32,2.0,8.0,-999,0.00,,,0.00,0.000000,,2013-02-27 09:52:00,